Regional Weather Roundup
Issued by NWS Upton, NY

Current Version | Previous Version | Graphics & Text | Print | Product List | Glossary Off
Versions: 1 2 3 4 5 6 7 8 9 10 11 12 13 14 15 16 17 18 19 20 21 22 23 24 25 26 27 28 29 30 31 32 33 34 35 36 37 38 39 40 41 42 43 44 45 46 47 48 49 50

693
ASUS41 KOKX 212108
RWROKX

REGIONAL WEATHER ROUNDUP
NATIONAL WEATHER SERVICE NEW YORK NY
400 PM EST TUE FEB 21 2017

NOTE: "FAIR" INDICATES FEW OR NO CLOUDS BELOW 12,000 FEET WITH NO
SIGNIFICANT WEATHER AND/OR OBSTRUCTIONS TO VISIBILITY.

NYZ071-072-176-178-NJZ106-104-212200-
NEW YORK CITY METRO AREA

CITY           SKY/WX    TMP DP  RH WIND       PRES   REMARKS
Central Park   CLOUDY    44  30  57 MISG      30.25F
Wall St Helipt NOT AVBL
LaGuardia APRT CLOUDY    46  30  53 S13       30.23F
Kennedy INTL   PTSUNNY   43  32  65 SE10      30.26F
Breezy Point     N/A     39 N/A N/A SE13        N/A  WCI  32
Newark/Liberty CLOUDY    44  32  62 SE8       30.23F
Teterboro      MOSUNNY   47  31  53 S8        30.22F
$$

NYZ177-179-078>081-212200-
LONG ISLAND NEW YORK

CITY           SKY/WX    TMP DP  RH WIND       PRES   REMARKS
Jones Beach      N/A     39 N/A N/A SE8         N/A  WCI  34
Matinecock PT  NOT AVBL
Farmingdale    MOSUNNY   42  29  59 S13       30.25F
MacArthur/ISP  CLOUDY    42  30  62 S9        30.25F
Shirley        CLOUDY    41  29  62 S10       30.26F
Westhampton    MOSUNNY   41  29  62 S7        30.27F
Southampton    NOT AVBL
Bridgehampton  NOT AVBL
East Hampton     N/A     39  29  67 S6        30.26S WCI  35
Montauk          N/A     40  30  67 S6        30.28F
$$

NYZ052-065-067-212200-
HUDSON VALLEY

CITY           SKY/WX    TMP DP  RH WIND       PRES   REMARKS
White Plains   CLOUDY    43  23  45 S6        30.21F
Newburgh       PTSUNNY   46  27  46 SW6       30.19F
Montgomery     CLOUDY    47  27  45 S7        30.17F
Poughkeepsie   CLOUDY    45  22  40 S8        30.19F
Albany         CLOUDY    43  18  36 S17G26    30.15F
$$

NJZ001-105-106-008-010-013-015-019>022-104-212200-
NEW JERSEY

CITY           SKY/WX    TMP DP  RH WIND       PRES   REMARKS
Newark/Liberty CLOUDY    44  32  62 SE8       30.23F
Teterboro      MOSUNNY   47  31  53 S8        30.22F
Caldwell       CLOUDY    45  32  60 SE10      30.22F
Somerville     CLOUDY    50  25  37 VRB7      30.19F
Linden         NOT AVBL
Sussex         CLOUDY    46  28  49 S6        30.18F
Andover          N/A     46  26  45 S7        30.18F
Trenton        PTSUNNY   50  28  42 S6        30.20F
Millville      PTSUNNY   48  35  60 SE9       30.24S
Atlantic City  MOSUNNY   45  30  55 S8        30.25S
Wrightstown    PTSUNNY   49  30  49 S8        30.20S
Toms River     CLOUDY    46  31  55 S10       30.24F
Belmar         MOSUNNY   45  31  58 SE10      30.24F
$$

PAZ047>061-062-071-212200-
EASTERN PENNSYLVANIA

CITY           SKY/WX    TMP DP  RH WIND       PRES   REMARKS
Philadelphia   CLOUDY    50  30  46 SW10      30.21F
Allentown      CLOUDY    51  26  37 S10       30.17F
Scranton       PTSUNNY   47  24  40 SW7       30.12F
$$

CTZ002-004>006-009-010-012-RIZ004-006-007-MAZ004-011-015-212200-
SOUTHERN NEW ENGLAND
 IN CT

CITY           SKY/WX    TMP DP  RH WIND       PRES   REMARKS
Bradley INTL   CLOUDY    44  15  31 S13       30.21F
Hartford       MOSUNNY   43  17  35 S10       30.23F
Danbury        CLOUDY    43  24  47 SW10      30.22F
Wtrbury/Oxford PTSUNNY   43  21  42 SW9       30.22F
Bridgeport     PTSUNNY   41  28  60 SE6       30.24F
Meriden        CLOUDY    44  23  43 S8        30.23F
New Haven      CLOUDY    41  23  48 SE5       30.25F
Chester          N/A     41  23  48 S7        30.24S
Groton         MOSUNNY   40  30  67 S9        30.26F WCI  34
Wilimantic     PTSUNNY   45  16  31 S8        30.23F

 IN RI

CITY           SKY/WX    TMP DP  RH WIND       PRES   REMARKS
Providence     CLOUDY    41  24  51 S10       30.24F
Block Island   CLOUDY    40  27  59 S9        30.27F WCI  34
Westerly       CLOUDY    40  27  59 S8        30.26F WCI  34
 IN MA

CITY           SKY/WX    TMP DP  RH WIND       PRES   REMARKS
Boston         CLOUDY    38  28  67 E14       30.24F WCI  30
Worcester      CLOUDY    41  11  29 S10       30.18F
Westfield      PTSUNNY   43  18  36 S10       30.19F
Provincetown   PTSUNNY   40  26  57 E8        30.26F WCI  34
Nantucket      CLOUDY    40  26  57 SE8       30.26F WCI  34
$$

ANZ330-335-338-340-345-350-353-355-212200-
COASTAL MARINE OBSERVATIONS


STATION/POSITION TIME  SKY/WX   TEMP    WIND        PRES    VSBY  WAVE
                                AIR SEA DIR/SP/G                  HT/PER
                 (UTC)          (F)     (DEG/KT/KT) (MB)    (MI)  (FT/S)
NY HARB ENTRANCE 2050            41 42  130/ 10/ 12 1023.8          2/ 5
20 S FIRE ISLAND 2050            42 43  190/  6/  8 1024.8          2/ 5
GREAT SOUTH BAY  NOT AVBL
23 SSW MONTAUK P 1950            41 47              1025.9          2/ 4
15 E BARNEGAT LI 2030               43                N/A           3/ 6
HUDSON CANYON    2050               50              1025.2          3/ 5
KINGS POINT      2036            42 40              1023.7
EXECUTION ROCKS  NOT AVBL
CENTRAL LI SOUND NOT AVBL
EASTERN LI SOUND NOT AVBL
ROBBINS REEF     2036            41     150/ 16/ 17 1024.1
$$


>>>>>>>>>>>>>>>>>>>>>>>>>>>> KEY <<<<<<<<<<<<<<<<<<<<<<<<<<<
>                                                          <
>     SKY/WX - Sky Condition/Present Weather               <
>     TMP    - Temperature in Fahrenheit                   <
>     DP     - Dew Point in Fahrenheit                     <
>     RH     - Relative Humidity in Percent                <
>     WIND   - Direction (from) and Speed in MPH           <
>     PRES   - Mean Sea Level Pressure (inches of Hg)      <
>     WCI    - Wind Chill Index                            <
>     VSB    - VISIBILITY IN MILES                         <
>     HX     - HEAT INDEX                                  <
>     TC     - TEMPERATURE IN CELSIUS                      <
>     VRB    - VARIABLE WIND DIRECTION                     <
>                                                          <
>>>>>>>>>>>>>>>>>>>>>>>>>>>> KEY <<<<<<<<<<<<<<<<<<<<<<<<<<<




USA.gov is the U.S. government's official web portal to all federal, state and local government web resources and services.